GW6623 Weather Reports


time (UTC)temp
C
wind
direction
speed
KPH
gust
KPH
rain 1hr
cm
rain 24hr
cm
rain mn
cm
humidity
%
barometer
mb
20260504190425 19 166 1.6 3.2 0.00 0.00 0.00 32 1011.3
20260504185922 19 147 1.6 17.7 0.00 0.00 0.00 29 1011.6
20260504185420 20 62 4.8 9.7 0.00 0.00 0.00 29 1011.5
20260504184915 19 14 1.6 6.4 0.00 0.00 0.00 28 1011.4
20260504184411 18 186 1.6 3.2 0.00 0.00 0.00 32 1011.6
20260504183908 19 67 1.6 4.8 0.00 0.00 0.00 28 1012.0
20260504183405 20 166 1.6 1.6 0.00 0.00 0.00 28 1011.8
20260504182903 21 150 3.2 3.2 0.00 0.00 0.00 28 1011.9
20260504182400 21 63 9.7 20.9 0.00 0.00 0.00 28 1011.9
20260504181856 20 148 3.2 9.7 0.00 0.00 0.00 31 1012.3
20260504181354 20 169 3.2 4.8 0.00 0.00 0.00 30 1012.3
20260504180852 20 155 1.6 3.2 0.00 0.00 0.00 28 1012.5
20260504180350 20 114 3.2 3.2 0.00 0.00 0.00 27 1012.5
20260504175848 20 89 3.2 6.4 0.00 0.00 0.00 29 1012.1
20260504175345 20 177 3.2 4.8 0.00 0.00 0.00 29 1012.0
20260504174843 19 138 1.6 3.2 0.00 0.00 0.00 33 1012.3
20260504174340 18 182 3.2 3.2 0.00 0.00 0.00 31 1012.5
20260504173837 17 175 1.6 11.3 0.00 0.00 0.00 34 1012.8
20260504173334 18 15 3.2 11.3 0.00 0.00 0.00 28 1012.7
20260504172831 18 114 1.6 12.9 0.00 0.00 0.00 32 1012.9
20260504172328 19 132 9.7 12.9 0.00 0.00 0.00 29 1012.8
20260504171823 18 84 3.2 4.8 0.00 0.00 0.00 32 1012.6
20260504171321 18 339 3.2 4.8 0.00 0.00 0.00 32 1012.8
20260504170818 18 162 3.2 4.8 0.00 0.00 0.00 34 1012.5
20260504170315 17 167 1.6 3.2 0.00 0.00 0.00 32 1012.7
20260504160233 16 133 1.6 3.2 0.00 0.00 0.00 32 1012.5
20260504150658 13 202 1.6 3.2 0.00 0.00 0.00 40 1012.0
20260504150155 12 195 4.8 4.8 0.00 0.00 0.00 44 1012.1
20260504141124 9 66 1.6 1.6 0.00 0.00 0.00 60 1012.0
20260504140621 8 95 0.0 1.6 0.00 0.00 0.00 60 1011.9
20260504140117 7 11 3.2 3.2 0.00 0.00 0.00 64 1011.9
20260504130545 1 193 0.0 1.6 0.00 0.00 0.00 83 1011.4
20260504110432 0 205 0.0 0.0 0.00 0.00 0.00 80 1010.7
20260504100349 0 184 0.0 1.6 0.00 0.00 0.00 81 1010.8
20260504081742 2 139 0.0 0.0 0.00 0.00 0.00 79 1011.2
20260504081239 2 113 0.0 0.0 0.00 0.00 0.00 78 1011.2
20260504080735 2 74 0.0 0.0 0.00 0.00 0.00 76 1011.2
20260504080232 2 273 0.0 0.0 0.00 0.00 0.00 75 1011.2
20260504070159 4 303 0.0 1.6 0.00 0.00 0.00 68 1011.8
20260504060120 7 202 0.0 1.6 0.00 0.00 0.00 53 1012.2
20260504050548 7 171 0.0 1.6 0.00 0.00 0.00 58 1012.2
20260504045542 8 73 0.0 1.6 0.00 0.00 0.00 56 1012.7
20260504045037 8 78 0.0 0.0 0.00 0.00 0.00 54 1012.6
20260504044535 8 78 0.0 0.0 0.00 0.00 0.00 51 1012.5
20260504044031 9 78 0.0 0.0 0.00 0.00 0.00 48 1012.8
20260504043528 10 23 0.0 0.0 0.00 0.00 0.00 48 1012.7
20260504043026 10 302 1.6 4.8 0.00 0.00 0.00 45 1012.7
20260504042523 10 296 3.2 4.8 0.00 0.00 0.00 45 1012.8
20260504042020 10 254 1.6 1.6 0.00 0.00 0.00 45 1012.6
20260504041515 10 254 0.0 3.2 0.00 0.00 0.00 46 1012.7
20260504041011 10 242 1.6 1.6 0.00 0.00 0.00 47 1012.8
20260504040509 10 216 1.6 1.6 0.00 0.00 0.00 46 1012.6
20260504040006 10 238 1.6 1.6 0.00 0.00 0.00 45 1012.7
20260504035503 10 264 1.6 3.2 0.00 0.00 0.00 46 1012.3
20260504034959 10 185 0.0 1.6 0.00 0.00 0.00 47 1012.3
20260504034457 10 214 1.6 3.2 0.00 0.00 0.00 45 1012.5
20260504033954 10 245 1.6 1.6 0.00 0.00 0.00 46 1012.5
20260504033451 11 233 3.2 3.2 0.00 0.00 0.00 45 1012.1
20260504032949 12 218 1.6 3.2 0.00 0.00 0.00 41 1012.3
20260504032445 13 246 1.6 4.8 0.00 0.00 0.00 38 1012.0
20260504031942 13 169 1.6 1.6 0.00 0.00 0.00 36 1012.1
20260504031439 13 150 0.0 1.6 0.00 0.00 0.00 33 1011.8
20260504030936 12 329 1.6 1.6 0.00 0.00 0.00 37 1011.9
20260504030433 14 287 3.2 3.2 0.00 0.00 0.00 38 1012.1
20260504025928 15 192 3.2 4.8 0.00 0.00 0.00 32 1011.9
20260504025425 15 57 0.0 1.6 0.00 0.00 0.00 30 1011.5
20260504024923 16 22 3.2 4.8 0.00 0.00 0.00 30 1011.4
20260504024420 15 6 8.0 9.7 0.00 0.00 0.00 29 1011.4
20260504023917 16 14 4.8 9.7 0.00 0.00 0.00 29 1011.3
20260504023413 16 25 4.8 12.9 0.00 0.00 0.00 28 1011.3
20260504022908 16 17 6.4 11.3 0.00 0.00 0.00 27 1011.2
20260504022405 16 31 8.0 12.9 0.00 0.00 0.00 26 1011.1
20260504021902 16 51 6.4 11.3 0.00 0.00 0.00 27 1010.8
20260504021359 16 30 1.6 3.2 0.00 0.00 0.00 26 1010.9
20260504020856 17 295 3.2 3.2 0.00 0.00 0.00 24 1010.9
20260504020353 18 354 1.6 1.6 0.00 0.00 0.00 22 1010.8
20260504015849 19 68 0.0 1.6 0.00 0.00 0.00 20 1010.7
20260504015345 20 31 1.6 4.8 0.00 0.00 0.00 19 1010.8
20260504014841 19 69 1.6 4.8 0.00 0.00 0.00 20 1010.6
20260504014337 20 1 6.4 6.4 0.00 0.00 0.00 18 1010.3
20260504013836 20 15 4.8 9.7 0.00 0.00 0.00 19 1010.6
20260504013333 20 10 3.2 4.8 0.00 0.00 0.00 16 1010.7
20260504012830 20 357 6.4 11.3 0.00 0.00 0.00 15 1010.7
20260504012327 20 21 3.2 11.3 0.00 0.00 0.00 16 1010.6
20260504011825 20 3 3.2 4.8 0.00 0.00 0.00 18 1010.8
20260504011321 20 51 1.6 3.2 0.00 0.00 0.00 19 1010.9
20260504010817 21 321 1.6 3.2 0.00 0.00 0.00 18 1010.9
20260504010313 21 349 1.6 6.4 0.00 0.00 0.00 15 1010.8
20260504005809 22 0 3.2 6.4 0.00 0.00 0.00 15 1010.7
20260504005306 22 3 8.0 11.3 0.00 0.00 0.00 15 1010.8
20260504004804 22 5 4.8 6.4 0.00 0.00 0.00 14 1010.9
20260504004301 22 358 4.8 6.4 0.00 0.00 0.00 17 1011.1
20260504003757 22 6 4.8 11.3 0.00 0.00 0.00 15 1010.9
20260504003255 21 7 3.2 6.4 0.00 0.00 0.00 15 1010.8
20260504002751 22 349 4.8 9.7 0.00 0.00 0.00 15 1011.1
20260504002248 22 0 8.0 11.3 0.00 0.00 0.00 15 1011.1
20260504001746 21 359 4.8 9.7 0.00 0.00 0.00 16 1011.1
20260504001243 21 10 8.0 9.7 0.00 0.00 0.00 15 1010.9
20260504000739 22 11 1.6 6.4 0.00 0.00 0.00 16 1011.1
20260504000236 21 343 6.4 9.7 0.00 0.00 0.00 15 1011.1
20260503235735 22 27 8.0 14.5 0.00 0.00 0.00 16 1011.2
20260503235231 22 357 3.2 6.4 0.00 0.00 0.00 14 1011.1
20260503234729 23 11 8.0 11.3 0.00 0.00 0.00 16 1011.2
20260503234227 23 12 8.0 12.9 0.00 0.00 0.00 16 1011.1
20260503233724 22 9 16.1 22.5 0.00 0.00 0.00 14 1010.9
20260503233219 21 297 6.4 9.7 0.00 0.00 0.00 15 1011.3
20260503232717 21 245 6.4 9.7 0.00 0.00 0.00 14 1011.4
20260503232214 21 353 3.2 4.8 0.00 0.00 0.00 14 1011.4
20260503231712 21 349 6.4 9.7 0.00 0.00 0.00 13 1011.4
20260503231208 22 328 4.8 9.7 0.00 0.00 0.00 12 1011.5
20260503230705 22 308 6.4 12.9 0.00 0.00 0.00 12 1011.4
20260503230202 23 259 8.0 16.1 0.00 0.00 0.00 13 1011.4
20260503225659 25 270 9.7 11.3 0.00 0.00 0.00 12 1011.3
20260503225159 24 289 6.4 16.1 0.00 0.00 0.00 13 1011.4
20260503224657 24 259 4.8 9.7 0.00 0.00 0.00 12 1011.5
20260503224155 24 301 8.0 16.1 0.00 0.00 0.00 13 1011.4
20260503223652 25 51 6.4 12.9 0.00 0.00 0.00 14 1011.4
20260503223149 24 177 1.6 3.2 0.00 0.00 0.00 14 1011.4
20260503222646 24 292 3.2 6.4 0.00 0.00 0.00 14 1011.4
20260503222143 23 145 1.6 1.6 0.00 0.00 0.00 17 1011.5
20260503221642 23 66 0.0 3.2 0.00 0.00 0.00 14 1011.9
20260503221139 23 196 6.4 6.4 0.00 0.00 0.00 19 1011.8
20260503220635 24 234 1.6 9.7 0.00 0.00 0.00 15 1011.9
20260503220132 23 217 3.2 9.7 0.00 0.00 0.00 15 1012.0
20260503215629 23 323 4.8 6.4 0.00 0.00 0.00 15 1012.0
20260503215126 22 205 1.6 6.4 0.00 0.00 0.00 21 1012.5
20260503214625 22 195 9.7 12.9 0.00 0.00 0.00 17 1012.5
20260503214120 23 187 3.2 4.8 0.00 0.00 0.00 14 1012.6
20260503213620 22 249 1.6 4.8 0.00 0.00 0.00 15 1012.5
20260503213116 23 206 12.9 17.7 0.00 0.00 0.00 15 1012.7
20260503212613 24 185 8.0 14.5 0.00 0.00 0.00 16 1012.8
20260503212111 25 259 6.4 11.3 0.00 0.00 0.00 14 1012.7
20260503211608 25 122 1.6 3.2 0.00 0.00 0.00 15 1013.0
20260503211103 24 182 1.6 1.6 0.00 0.00 0.00 18 1013.0
20260503210600 23 148 1.6 4.8 0.00 0.00 0.00 21 1013.3
20260503210056 24 171 1.6 4.8 0.00 0.00 0.00 18 1013.3
20260503205553 24 358 3.2 4.8 0.00 0.00 0.00 21 1013.2
20260503205049 23 2 1.6 6.4 0.00 0.00 0.00 15 1013.2
20260503204546 23 108 1.6 6.4 0.00 0.00 0.00 22 1013.3
20260503204043 25 26 6.4 9.7 0.00 0.00 0.00 17 1013.5
20260503203540 23 233 1.6 6.4 0.00 0.00 0.00 24 1013.5
20260503203037 23 177 1.6 3.2 0.00 0.00 0.00 18 1013.7
20260503202535 23 156 4.8 11.3 0.00 0.00 0.00 20 1013.9
20260503202033 23 348 1.6 6.4 0.00 0.00 0.00 15 1014.0
20260503201531 25 15 1.6 3.2 0.00 0.00 0.00 17 1014.2
20260503201028 24 211 1.6 3.2 0.00 0.00 0.00 19 1014.1
20260503200524 23 189 0.0 1.6 0.00 0.00 0.00 18 1014.2
20260503200021 23 105 3.2 4.8 0.00 0.00 0.00 22 1014.1
20260503195518 22 330 1.6 3.2 0.00 0.00 0.00 21 1014.2
20260503195015 22 29 6.4 9.7 0.00 0.00 0.00 21 1014.2
20260503194512 22 2 4.8 6.4 0.00 0.00 0.00 19 1014.3
20260503194012 21 235 3.2 6.4 0.00 0.00 0.00 18 1014.4
20260503193508 22 205 6.4 6.4 0.00 0.00 0.00 18 1014.7
20260503193004 22 6 6.4 6.4 0.00 0.00 0.00 21 1014.6
20260503192500 22 166 0.0 1.6 0.00 0.00 0.00 17 1014.7
20260503191955 21 158 1.6 1.6 0.00 0.00 0.00 23 1014.7
20260503191453 21 19 8.0 9.7 0.00 0.00 0.00 20 1014.8
20260503190949 21 27 1.6 6.4 0.00 0.00 0.00 20 1014.9